Location: White Mills Observatory
(37.5374°N, 86.0303°W)
Time: 18:49:24
(UTC-04:00)

HST - Visible Passes

Search period start: 25 October 2014 00:00
Search period end: 03 November 2014 23:00
Orbit: 546 x 550 km, 28.5° (Epoch: 24 October)

Date Brightness Start Highest point End Pass type
(mag) Time Alt. Az. Time Alt. Az. Time Alt. Az.
25 Oct 2.9 20:48:52 10° SSW 20:50:43 16° S 20:50:43 16° S visible
26 Oct 2.7 20:41:14 10° SW 20:43:54 19° S 20:43:54 19° S visible
27 Oct 2.5 20:33:41 10° SW 20:36:54 21° S 20:37:03 21° S visible
28 Oct 2.4 20:26:12 10° SW 20:29:31 23° S 20:30:11 22° SSE visible
29 Oct 2.4 20:18:46 10° SW 20:22:08 23° S 20:23:18 21° SSE visible
30 Oct 2.5 20:11:23 10° SW 20:14:44 23° S 20:16:25 18° SSE visible
31 Oct 2.6 20:04:01 10° WSW 20:07:20 23° S 20:09:34 15° SE visible
01 Nov 2.8 19:56:42 10° WSW 19:59:55 21° S 20:02:46 12° SE visible
02 Nov 2.9 18:49:26 10° WSW 18:52:29 20° S 18:55:32 10° SE visible
03 Nov 3.1 18:42:14 10° SW 18:45:02 17° SSW 18:47:50 10° SSE visible
